Tracking 19149 objects as of 21-Apr-2018
HD Live streaming from Space Station
objects crossing your sky now

COSMOS 2251 DEB

Track COSMOS 2251 DEB now!
10-day predictions


NORAD ID: 37326
Int'l Code: 1993-036BKS
Perigee: 680.8 km
Apogee: 778.5 km
Inclination: 74.0 °
Period: 99.2 minutes
Semi major axis: 7100 km
RCS: 0.0127 m2 (small)
Launch date: June 16, 1993
Source: Commonwealth of Independent States (former USSR) (CIS)
Launch site: PLESETSK MISSILE AND SPACE COMPLEX (PKMTR)

Note: This is SATELLITE DEBRIS
aabbcc
Your satellite tracking list
Your tracking list is empty




NASA's NSSDC Master Catalog

Two Line Element Set (TLE):
1 37326U 93036BKS 18109.64321009 +.00000267 +00000-0 +73085-4 0  9998
2 37326 074.0293 214.6962 0068761 317.2957 042.2871 14.50954647448869
Source of the keplerian elements: AFSPC